Time,TemperatureF,DewpointF,PressureIn,WindDirection,WindDirectionDegrees,WindSpeedMPH,WindSpeedGustMPH,Humidity,HourlyPrecipIn,Conditions,Clouds,dailyrainin,SoftwareType,DateUTC
2016-07-28 00:00:00,62.2,52.3,30.00,North,350,0.0,4.0,70,0.00,SCT,,0.00,WeatherDisplay:10.37,2016-07-27 23:00:00,
2016-07-28 00:10:00,61.8,52.3,30.00,NNW,343,2.0,5.0,71,0.00,SCT,,0.00,WeatherDisplay:10.37,2016-07-27 23:10:00,
2016-07-28 00:18:00,61.7,52.2,30.00,NNW,343,0.0,4.0,71,0.00,SCT,,0.00,WeatherDisplay:10.37,2016-07-27 23:18:00,
2016-07-28 00:30:00,61.7,52.6,30.00,NNW,337,1.0,2.0,72,0.00,SCT,,0.00,WeatherDisplay:10.37,2016-07-27 23:30:00,
2016-07-28 00:40:00,61.3,51.9,30.00,North,9,2.0,4.0,71,0.00,SCT,,0.00,WeatherDisplay:10.37,2016-07-27 23:40:00,
2016-07-28 00:50:00,61.2,51.7,30.00,NNW,342,2.0,4.0,71,0.00,SCT,,0.00,WeatherDisplay:10.37,2016-07-27 23:50:00,
2016-07-28 01:00:00,60.8,51.3,29.97,North,353,0.0,3.0,71,0.00,SCT,,0.00,WeatherDisplay:10.37,2016-07-28 00:00:00,
2016-07-28 01:10:00,61.0,51.5,29.97,NNW,336,0.0,2.0,71,0.00,SCT,,0.00,WeatherDisplay:10.37,2016-07-28 00:10:00,
2016-07-28 01:20:00,61.2,51.7,30.00,NNW,343,0.0,2.0,71,0.00,SCT,,0.00,WeatherDisplay:10.37,2016-07-28 00:20:00,
2016-07-28 01:30:00,61.0,51.5,30.00,NNE,14,0.0,2.0,71,0.00,SCT,,0.00,WeatherDisplay:10.37,2016-07-28 00:30:00,
2016-07-28 01:40:00,61.2,51.7,30.00,North,7,0.0,0.0,71,0.00,SCT,,0.00,WeatherDisplay:10.37,2016-07-28 00:40:00,
2016-07-28 01:50:00,61.2,51.7,30.00,North,8,0.0,0.0,71,0.00,SCT,,0.00,WeatherDisplay:10.37,2016-07-28 00:50:00,
2016-07-28 02:00:00,61.0,51.5,29.97,NW,319,0.0,1.0,71,0.00,SCT,,0.00,WeatherDisplay:10.37,2016-07-28 01:00:00,
2016-07-28 02:10:00,60.8,50.6,29.97,WNW,283,0.0,1.0,69,0.00,SCT,,0.00,WeatherDisplay:10.37,2016-07-28 01:10:00,
2016-07-28 02:20:00,60.8,51.0,29.97,WNW,302,2.0,3.0,70,0.00,SCT,,0.00,WeatherDisplay:10.37,2016-07-28 01:20:00,
2016-07-28 02:30:00,60.6,50.8,29.97,NW,317,0.0,3.0,70,0.00,SCT,,0.00,WeatherDisplay:10.37,2016-07-28 01:30:00,
2016-07-28 02:40:00,60.4,50.6,29.97,North,7,1.0,5.0,70,0.00,SCT,,0.00,WeatherDisplay:10.37,2016-07-28 01:40:00,
2016-07-28 02:50:00,60.3,50.4,29.97,NW,306,0.0,5.0,70,0.00,SCT,,0.00,WeatherDisplay:10.37,2016-07-28 01:50:00,
2016-07-28 03:00:00,60.1,50.6,29.97,NNW,348,0.0,1.0,71,0.00,SCT,,0.00,WeatherDisplay:10.37,2016-07-28 02:00:00,
2016-07-28 03:10:00,60.2,50.8,29.97,WNW,287,0.0,2.0,71,0.00,SCT,,0.00,WeatherDisplay:10.37,2016-07-28 02:10:00,
2016-07-28 03:20:00,60.1,51.0,30.00,West,265,0.0,5.0,72,0.00,SCT,,0.00,WeatherDisplay:10.37,2016-07-28 02:20:00,
2016-07-28 03:30:00,59.9,50.9,29.97,WSW,253,0.0,0.0,72,0.00,SCT,,0.00,WeatherDisplay:10.37,2016-07-28 02:30:00,
2016-07-28 03:40:00,59.9,50.8,29.97,West,279,0.0,0.0,72,0.00,SCT,,0.00,WeatherDisplay:10.37,2016-07-28 02:40:00,
2016-07-28 03:50:00,59.5,50.9,29.97,North,352,0.0,2.0,73,0.00,SCT,,0.00,WeatherDisplay:10.37,2016-07-28 02:50:00,
2016-07-28 04:00:00,59.7,51.0,29.97,NNW,331,0.0,2.0,73,0.00,SCT,,0.00,WeatherDisplay:10.37,2016-07-28 03:00:00,
2016-07-28 04:10:00,59.5,50.9,29.97,SW,225,0.0,3.0,73,0.00,SCT,,0.00,WeatherDisplay:10.37,2016-07-28 03:10:00,
2016-07-28 04:20:00,59.5,50.9,29.97,SW,225,0.0,0.0,73,0.00,SCT,,0.00,WeatherDisplay:10.37,2016-07-28 03:20:00,
2016-07-28 04:30:00,59.2,50.5,29.97,SW,225,0.0,0.0,73,0.00,SCT,,0.00,WeatherDisplay:10.37,2016-07-28 03:30:00,
2016-07-28 04:40:00,59.3,51.0,29.97,SW,225,0.0,0.0,74,0.00,SCT,,0.00,WeatherDisplay:10.37,2016-07-28 03:40:00,
2016-07-28 04:50:00,59.2,50.5,29.97,WNW,284,0.0,6.0,73,0.00,SCT,,0.00,WeatherDisplay:10.37,2016-07-28 03:50:00,
2016-07-28 05:00:00,59.0,50.7,29.97,West,272,1.0,3.0,74,0.00,SCT,,0.00,WeatherDisplay:10.37,2016-07-28 04:00:00,
2016-07-28 05:10:00,58.8,50.9,29.97,West,275,1.0,4.0,75,0.00,SCT,,0.00,WeatherDisplay:10.37,2016-07-28 04:10:00,
2016-07-28 05:30:00,58.6,50.7,29.97,WSW,251,1.0,2.0,75,0.00,SCT,,0.00,WeatherDisplay:10.37,2016-07-28 04:30:00,
2016-07-28 05:40:00,58.5,50.6,29.97,North,349,0.0,5.0,75,0.00,SCT,,0.00,WeatherDisplay:10.37,2016-07-28 04:40:00,
2016-07-28 05:50:00,58.5,50.6,29.97,West,263,0.0,4.0,75,0.00,SCT,,0.00,WeatherDisplay:10.37,2016-07-28 04:50:00,
2016-07-28 06:00:00,58.5,50.6,29.97,WNW,292,0.0,0.0,75,0.00,SCT,,0.00,WeatherDisplay:10.37,2016-07-28 05:00:00,
2016-07-28 06:10:00,58.3,50.4,29.97,West,271,0.0,2.0,75,0.00,SCT,,0.00,WeatherDisplay:10.37,2016-07-28 05:10:00,
2016-07-28 06:20:00,58.3,50.4,29.97,West,278,0.0,2.0,75,0.00,SCT,,0.00,WeatherDisplay:10.37,2016-07-28 05:20:00,
2016-07-28 06:30:00,58.3,50.4,29.97,West,275,1.0,2.0,75,0.00,SCT,,0.00,WeatherDisplay:10.37,2016-07-28 05:30:00,
2016-07-28 06:40:00,58.2,50.4,29.97,WSW,245,1.0,4.0,75,0.00,SCT,,0.00,WeatherDisplay:10.37,2016-07-28 05:40:00,
2016-07-28 06:50:00,57.9,50.0,29.97,WSW,245,1.0,5.0,75,0.00,SCT,,0.00,WeatherDisplay:10.37,2016-07-28 05:50:00,
2016-07-28 07:00:00,58.4,50.5,29.97,West,267,0.0,4.0,75,0.00,SCT,,0.00,WeatherDisplay:10.37,2016-07-28 06:00:00,
2016-07-28 07:10:00,58.6,50.7,29.97,NNW,339,0.0,2.0,75,0.00,SCT,,0.00,WeatherDisplay:10.37,2016-07-28 06:10:00,
2016-07-28 07:20:00,58.8,50.9,29.97,West,260,0.0,3.0,75,0.00,SCT,,0.00,WeatherDisplay:10.37,2016-07-28 06:20:00,
2016-07-28 07:30:00,59.1,51.1,29.97,WSW,258,3.0,5.0,75,0.00,SCT,,0.00,WeatherDisplay:10.37,2016-07-28 06:30:00,
2016-07-28 07:40:00,59.0,51.1,29.97,WSW,258,3.0,4.0,75,0.00,SCT,,0.00,WeatherDisplay:10.37,2016-07-28 06:40:00,
2016-07-28 07:50:00,59.9,51.6,29.97,WNW,286,3.0,5.0,74,0.00,SCT,,0.00,WeatherDisplay:10.37,2016-07-28 06:50:00,
2016-07-28 08:00:00,62.2,52.7,29.97,WSW,237,3.0,5.0,71,0.00,SCT,,0.00,WeatherDisplay:10.37,2016-07-28 07:00:00,
2016-07-28 08:10:00,61.3,51.9,29.97,West,262,3.0,5.0,71,0.00,SCT,,0.00,WeatherDisplay:10.37,2016-07-28 07:10:00,
2016-07-28 08:20:00,60.8,51.7,29.97,WSW,252,3.0,7.0,72,0.00,SCT,,0.00,WeatherDisplay:10.37,2016-07-28 07:20:00,
2016-07-28 08:30:00,61.9,52.4,29.97,SSW,213,0.0,6.0,71,0.00,SCT,,0.00,WeatherDisplay:10.37,2016-07-28 07:30:00,
2016-07-28 08:40:00,61.9,52.0,29.97,SW,236,0.0,5.0,70,0.00,SCT,,0.00,WeatherDisplay:10.37,2016-07-28 07:40:00,
2016-07-28 08:50:00,62.6,52.7,29.97,WSW,239,2.0,6.0,70,0.00,SCT,,0.00,WeatherDisplay:10.37,2016-07-28 07:50:00,
2016-07-28 09:00:00,62.4,52.1,29.97,SW,234,3.0,5.0,69,0.00,SCT,,0.00,WeatherDisplay:10.37,2016-07-28 08:00:00,
2016-07-28 09:10:00,62.8,52.1,29.97,WSW,249,0.0,5.0,68,0.00,SCT,,0.00,WeatherDisplay:10.37,2016-07-28 08:10:00,
2016-07-28 09:20:00,63.0,52.2,29.97,WSW,252,2.0,5.0,68,0.00,SCT,,0.00,WeatherDisplay:10.37,2016-07-28 08:20:00,
2016-07-28 09:30:00,63.9,52.7,29.97,SSW,199,3.0,4.0,67,0.00,SCT,,0.00,WeatherDisplay:10.37,2016-07-28 08:30:00,
2016-07-28 09:40:00,63.7,52.5,29.97,West,260,2.0,6.0,67,0.00,SCT,,0.00,WeatherDisplay:10.37,2016-07-28 08:40:00,
2016-07-28 09:50:00,64.0,51.6,29.94,SW,217,7.0,8.0,64,0.00,SCT,,0.00,WeatherDisplay:10.37,2016-07-28 08:50:00,
2016-07-28 10:00:00,64.4,51.5,29.94,SW,221,2.0,9.0,63,0.00,SCT,,0.00,WeatherDisplay:10.37,2016-07-28 09:00:00,
2016-07-28 10:10:00,64.6,51.3,29.94,SW,225,2.0,9.0,62,0.00,SCT,,0.00,WeatherDisplay:10.37,2016-07-28 09:10:00,
2016-07-28 10:20:00,65.1,51.8,29.94,SW,225,6.0,12.0,62,0.00,SCT,,0.00,WeatherDisplay:10.37,2016-07-28 09:20:00,
2016-07-28 10:30:00,65.6,52.2,29.94,SSW,212,7.0,8.0,62,0.00,SCT,,0.00,WeatherDisplay:10.37,2016-07-28 09:30:00,
2016-07-28 10:40:00,65.7,51.8,29.94,SSW,199,6.0,13.0,61,0.00,SCT,,0.00,WeatherDisplay:10.37,2016-07-28 09:40:00,
2016-07-28 10:50:00,66.2,51.9,29.94,SW,226,9.0,12.0,60,0.00,SCT,,0.00,WeatherDisplay:10.37,2016-07-28 09:50:00,
2016-07-28 11:00:00,66.9,52.6,29.94,SSW,212,6.0,12.0,60,0.00,SCT,,0.00,WeatherDisplay:10.37,2016-07-28 10:00:00,
2016-07-28 11:10:00,67.1,51.8,29.94,SW,216,6.0,13.0,58,0.00,SCT,,0.00,WeatherDisplay:10.37,2016-07-28 10:10:00,
2016-07-28 11:20:00,67.5,52.6,29.94,WSW,241,7.0,13.0,59,0.00,SCT,,0.00,WeatherDisplay:10.37,2016-07-28 10:20:00,
2016-07-28 11:30:00,68.1,52.8,29.94,SW,219,7.0,13.0,58,0.00,SCT,,0.00,WeatherDisplay:10.37,2016-07-28 10:30:00,
2016-07-28 11:40:00,68.2,52.8,29.94,SSW,207,7.0,12.0,58,0.00,SCT,,0.00,WeatherDisplay:10.37,2016-07-28 10:40:00,
2016-07-28 11:50:00,68.5,52.2,29.94,SSW,201,9.0,12.0,56,0.00,SCT,,0.00,WeatherDisplay:10.37,2016-07-28 10:50:00,
2016-07-28 12:00:00,68.4,53.0,29.94,SW,229,7.0,13.0,58,0.00,SCT,,0.00,WeatherDisplay:10.37,2016-07-28 11:00:00,
2016-07-28 12:10:00,69.4,54.0,29.94,SSW,212,3.0,8.0,58,0.00,SCT,,0.00,WeatherDisplay:10.37,2016-07-28 11:10:00,
2016-07-28 12:20:00,68.5,52.2,29.94,SSW,211,7.0,12.0,56,0.00,SCT,,0.00,WeatherDisplay:10.37,2016-07-28 11:20:00,
2016-07-28 12:30:00,68.2,52.8,29.94,WSW,250,3.0,9.0,58,0.00,SCT,,0.00,WeatherDisplay:10.37,2016-07-28 11:30:00,
2016-07-28 12:40:00,68.2,52.8,29.94,WSW,242,6.0,12.0,58,0.00,SCT,,0.00,WeatherDisplay:10.37,2016-07-28 11:40:00,
2016-07-28 12:50:00,67.3,52.0,29.94,SW,231,12.0,12.0,58,0.00,SCT,,0.00,WeatherDisplay:10.37,2016-07-28 11:50:00,
2016-07-28 13:00:00,66.1,52.7,29.94,SW,224,7.0,12.0,62,0.00,SCT,,0.00,WeatherDisplay:10.37,2016-07-28 12:00:00,
2016-07-28 13:10:00,65.3,54.1,29.94,West,259,8.0,9.0,67,0.00,SCT,,0.00,WeatherDisplay:10.37,2016-07-28 12:10:00,
2016-07-28 13:20:00,63.4,54.2,29.94,West,267,5.0,9.0,72,0.00,SCT,,0.00,WeatherDisplay:10.37,2016-07-28 12:20:00,
2016-07-28 13:30:00,62.8,54.7,29.94,WSW,254,2.0,6.0,75,0.06,RA,,0.06,WeatherDisplay:10.37,2016-07-28 12:30:00,
2016-07-28 13:40:00,62.6,54.6,29.94,West,276,3.0,4.0,75,0.06,RA,,0.12,WeatherDisplay:10.37,2016-07-28 12:40:00,
2016-07-28 13:50:00,62.1,54.8,29.94,West,275,2.0,5.0,77,0.00,SCT,,0.12,WeatherDisplay:10.37,2016-07-28 12:50:00,
2016-07-28 14:00:00,62.1,54.8,29.91,West,276,1.0,4.0,77,0.00,SCT,,0.12,WeatherDisplay:10.37,2016-07-28 13:00:00,
2016-07-28 14:10:00,62.1,55.1,29.91,WSW,247,0.0,5.0,78,0.00,SCT,,0.12,WeatherDisplay:10.37,2016-07-28 13:10:00,
2016-07-28 14:20:00,62.6,56.0,29.91,WSW,248,0.0,3.0,79,0.00,SCT,,0.12,WeatherDisplay:10.37,2016-07-28 13:20:00,
2016-07-28 14:30:00,63.5,57.3,29.91,SW,229,0.0,2.0,80,0.00,SCT,,0.12,WeatherDisplay:10.37,2016-07-28 13:30:00,
2016-07-28 14:40:00,64.4,57.7,29.91,South,188,2.0,5.0,79,0.00,SCT,,0.12,WeatherDisplay:10.37,2016-07-28 13:40:00,
2016-07-28 14:50:00,65.5,58.4,29.91,SSW,196,6.0,7.0,78,0.00,SCT,,0.12,WeatherDisplay:10.37,2016-07-28 13:50:00,
2016-07-28 15:00:00,66.0,58.6,29.88,SW,214,6.0,8.0,77,0.00,SCT,,0.12,WeatherDisplay:10.37,2016-07-28 14:00:00,
2016-07-28 15:10:00,66.4,58.2,29.88,SSW,204,7.0,9.0,75,0.00,SCT,,0.12,WeatherDisplay:10.37,2016-07-28 14:10:00,
2016-07-28 15:20:00,66.4,57.5,29.88,South,184,12.0,18.0,73,0.00,SCT,,0.12,WeatherDisplay:10.37,2016-07-28 14:20:00,
2016-07-28 15:30:00,66.3,58.2,29.88,SSW,198,7.0,12.0,75,0.00,SCT,,0.12,WeatherDisplay:10.37,2016-07-28 14:30:00,
2016-07-28 15:40:00,66.0,57.9,29.88,SSW,207,6.0,13.0,75,0.00,SCT,,0.12,WeatherDisplay:10.37,2016-07-28 14:40:00,
2016-07-28 15:50:00,65.8,57.6,29.88,SSW,208,12.0,12.0,75,0.00,SCT,,0.12,WeatherDisplay:10.37,2016-07-28 14:50:00,
2016-07-28 16:00:00,65.9,58.1,29.88,SSW,194,6.0,12.0,76,0.00,SCT,,0.12,WeatherDisplay:10.37,2016-07-28 15:00:00,
2016-07-28 16:10:00,66.2,58.0,29.88,SW,218,8.0,12.0,75,0.00,SCT,,0.12,WeatherDisplay:10.37,2016-07-28 15:10:00,
2016-07-28 16:20:00,66.4,58.6,29.88,SSW,203,5.0,9.0,76,0.00,SCT,,0.12,WeatherDisplay:10.37,2016-07-28 15:20:00,
2016-07-28 16:30:00,66.4,58.6,29.85,SSW,199,6.0,10.0,76,0.00,SCT,,0.12,WeatherDisplay:10.37,2016-07-28 15:30:00,
2016-07-28 16:40:00,66.2,58.4,29.85,SSW,203,6.0,16.0,76,0.00,SCT,,0.12,WeatherDisplay:10.37,2016-07-28 15:40:00,
2016-07-28 16:50:00,66.1,58.7,29.85,SW,226,7.0,15.0,77,0.00,SCT,,0.12,WeatherDisplay:10.37,2016-07-28 15:50:00,
2016-07-28 17:00:00,66.2,58.8,29.85,SSW,208,5.0,12.0,77,0.00,SCT,,0.12,WeatherDisplay:10.37,2016-07-28 16:00:00,
2016-07-28 17:10:00,66.2,58.8,29.85,SSW,212,5.0,10.0,77,0.00,SCT,,0.12,WeatherDisplay:10.37,2016-07-28 16:10:00,
2016-07-28 17:20:00,66.2,58.8,29.85,SSW,209,6.0,14.0,77,0.00,SCT,,0.12,WeatherDisplay:10.37,2016-07-28 16:20:00,
2016-07-28 17:30:00,66.2,59.1,29.85,SSW,205,5.0,7.0,78,0.00,SCT,,0.12,WeatherDisplay:10.37,2016-07-28 16:30:00,
2016-07-28 17:40:00,66.0,60.0,29.85,SSW,201,9.0,10.0,81,0.00,SCT,,0.12,WeatherDisplay:10.37,2016-07-28 16:40:00,
2016-07-28 17:50:00,66.6,59.8,29.85,South,182,6.0,10.0,79,0.00,SCT,,0.12,WeatherDisplay:10.37,2016-07-28 16:50:00,
2016-07-28 18:00:00,66.7,60.0,29.85,South,190,8.0,9.0,79,0.00,SCT,,0.12,WeatherDisplay:10.37,2016-07-28 17:00:00,
2016-07-28 18:10:00,66.6,59.8,29.85,SSE,160,13.0,14.0,79,0.00,SCT,,0.12,WeatherDisplay:10.37,2016-07-28 17:10:00,
2016-07-28 18:20:00,66.7,60.0,29.85,SSW,203,7.0,14.0,79,0.00,SCT,,0.12,WeatherDisplay:10.37,2016-07-28 17:20:00,
2016-07-28 18:30:00,66.6,59.8,29.85,SSW,209,6.0,9.0,79,0.00,SCT,,0.12,WeatherDisplay:10.37,2016-07-28 17:30:00,
2016-07-28 18:40:00,66.6,59.8,29.85,South,189,8.0,11.0,79,0.00,SCT,,0.12,WeatherDisplay:10.37,2016-07-28 17:40:00,
2016-07-28 18:50:00,66.2,60.2,29.85,SSW,200,9.0,9.0,81,0.00,SCT,,0.12,WeatherDisplay:10.37,2016-07-28 17:50:00,
2016-07-28 19:00:00,66.2,60.2,29.83,SSW,198,7.0,9.0,81,0.00,SCT,,0.12,WeatherDisplay:10.37,2016-07-28 18:00:00,
2016-07-28 19:10:00,66.2,60.2,29.83,South,188,8.0,9.0,81,0.00,SCT,,0.12,WeatherDisplay:10.37,2016-07-28 18:10:00,
2016-07-28 19:20:00,66.0,60.7,29.83,SSW,202,5.0,9.0,83,0.00,SCT,,0.12,WeatherDisplay:10.37,2016-07-28 18:20:00,
2016-07-28 19:30:00,65.7,60.7,29.85,South,178,5.0,9.0,84,0.00,SCT,,0.12,WeatherDisplay:10.37,2016-07-28 18:30:00,
2016-07-28 19:40:00,65.3,61.0,29.85,SSW,195,3.0,5.0,86,0.06,RA,,0.18,WeatherDisplay:10.37,2016-07-28 18:40:00,
2016-07-28 19:50:00,65.3,61.0,29.83,SE,144,3.0,7.0,86,0.00,SCT,,0.18,WeatherDisplay:10.37,2016-07-28 18:50:00,
2016-07-28 20:00:00,65.1,60.8,29.83,SE,134,3.0,5.0,86,0.00,SCT,,0.18,WeatherDisplay:10.37,2016-07-28 19:00:00,
2016-07-28 20:10:00,65.1,61.2,29.83,South,183,5.0,6.0,87,0.00,SCT,,0.18,WeatherDisplay:10.37,2016-07-28 19:10:00,
2016-07-28 20:20:00,64.9,61.0,29.83,South,190,3.0,6.0,87,0.00,SCT,,0.18,WeatherDisplay:10.37,2016-07-28 19:20:00,
2016-07-28 20:30:00,64.9,61.0,29.83,SSW,192,3.0,6.0,87,0.00,SCT,,0.18,WeatherDisplay:10.37,2016-07-28 19:30:00,
2016-07-28 20:40:00,64.9,60.6,29.83,SW,228,5.0,7.0,86,0.00,SCT,,0.18,WeatherDisplay:10.37,2016-07-28 19:40:00,
2016-07-28 20:50:00,64.6,60.3,29.83,North,351,2.0,5.0,86,0.00,SCT,,0.18,WeatherDisplay:10.37,2016-07-28 19:50:00,
2016-07-28 21:00:00,64.6,60.6,29.83,SSW,204,0.0,4.0,87,0.00,SCT,,0.18,WeatherDisplay:10.37,2016-07-28 20:00:00,
2016-07-28 21:10:00,64.4,60.4,29.83,West,272,0.0,4.0,87,0.00,SCT,,0.18,WeatherDisplay:10.37,2016-07-28 20:10:00,
2016-07-28 21:20:00,64.0,60.1,29.85,West,270,0.0,0.0,87,0.00,SCT,,0.18,WeatherDisplay:10.37,2016-07-28 20:20:00,
2016-07-28 21:30:00,63.9,59.9,29.85,SSW,202,0.0,3.0,87,0.00,SCT,,0.18,WeatherDisplay:10.37,2016-07-28 20:30:00,